Miscellaneous Local Product
Issued by NWS North Platte, NE

Home | Current Version | Previous Version | Text Only | Print | Product List | Glossary On
Versions: 1 2 3 4 5 6 7 8 9 10 11 12 13 14 15 16 17 18 19 20 21 22 23 24 25 26 27 28 29 30 31 32 33 34 35 36 37 38 39 40 41 42 43 44 45 46 47 48 49 50
000
AXUS43 KLBF 040410
MISLBF


WESTERN AND NORTH CENTRAL NEBRASKA HOURLY WEATHER ROUNDUP
NATIONAL WEATHER SERVICE NORTH PLATTE NE
1100 PM CDT SUN MAY 03 2015

***STATIONS NOT REPORTING VARIABLES SUCH AS SKY/WEATHER OR
PRESSURE ARE PROVIDED BY THE NEBRASKA DEPARTMENT OF
ROADS...RAWS...AND APRS NETWORKS...AND ARE NOT UNDER
NATIONAL WEATHER SERVICE QUALITY CONTROL***

...OBSERVATIONS IN AND NEAR THE EASTERN PANHANDLE OF NEBRASKA...

CITY           SKY/WX    TMP DP  RH WIND       PRES   REMARKS
PINE RIDGE     CLOUDY    48  37  65 E6        30.06R
CHADRON        MOCLDY    52  40  63 E7        30.04R
ALLIANCE       MOCLDY    54  42  64 NE12      30.05R
SIDNEY         CLOUDY    57  40  52 E10       30.05R
WHITECLAY        N/A     57  34  42 E9          N/A
CRESCENT LAKE    N/A     56  38  51 E6          N/A
BIG SPRINGS      N/A     61  40  46 NE9         N/A
$$

...OBSERVATIONS IN NORTH CENTRAL NEBRASKA...

CITY           SKY/WX    TMP DP  RH WIND       PRES   REMARKS
VALENTINE      MOCLDY    57  33  40 NE13      30.03R
THEDFORD       CLOUDY    56  39  52 NE6       30.02R
AINSWORTH      CLEAR     57  35  43 NE10      30.02R
O`NEILL        MOCLDY    60  40  47 N12       29.99R
ORD            MOCLDY    63  37  38 NE18G28   29.93R
BROKEN BOW     PTCLDY    63  39  41 NE20      29.95R
BROWNLEE         N/A     59  34  38 N13         N/A
VALENTINE NWR    N/A     59  37  43 N8          N/A
SPRINGVIEW       N/A     59  36  41 E3          N/A
HALSEY           N/A     59  38  45 NE3         N/A
BREWSTER         N/A     64  41  42 NE9         N/A
ROSE             N/A     61  42  48 N13         N/A
NEWPORT          N/A     60  37  42 N10         N/A
SARGENT          N/A     62  39  43 E7G17       N/A
COMSTOCK         N/A     68  41  36 NE17        N/A
EWING            N/A     61  43  51 NE3         N/A
$$

...OBSERVATIONS IN SOUTHWEST NEBRASKA AND FAR NORTHEAST COLORADO...

CITY           SKY/WX    TMP DP  RH WIND       PRES   REMARKS
WRAY           FAIR      64  41  42 N15       29.99R
IMPERIAL       CLOUDY    62  41  46 N14       29.98R
OGALLALA       CLOUDY    60  40  48 NE9       30.01R
NORTH PLATTE   CLOUDY    60  40  47 NE18G25   29.97R
MCCOOK         MOCLDY    67  44  43 NE22G29   29.90R
LEXINGTON      MOCLDY    64  42  44 NE21      29.93R
PAXTON           N/A     61  43  50 N6          N/A
SUTHERLAND       N/A     57  36  44 NE7         N/A
GOTHENBURG       N/A     63  37  37 N12         N/A
CALLAWAY         N/A     61  43  50 NE12        N/A
$$

...NORTH PLATTE AREA...

CITY           SKY/WX    TMP DP  RH WIND       PRES   REMARKS
AIRPORT        CLOUDY    60  40  47 NE18G25   29.97R
DOWNTOWN         N/A     61  40  46 NE5G12      N/A
$$

...SOME WEATHER OBSERVATIONS FROM AROUND THE REGION...

CITY           SKY/WX    TMP DP  RH WIND       PRES   REMARKS
DENVER         PTCLDY    50  45  83 SE7       30.07R
LARAMIE        CLOUDY    41  39  93 NE7       30.12S
CHEYENNE       CLOUDY    49  43  80 NW3       30.11R
SCOTTSBLUFF    CLOUDY    56  41  57 E9        30.05R
RAPID CITY     PTCLDY    51  34  52 NE10      30.08R
PIERRE         PTCLDY    52  24  33 N12       30.03S
WINNER         FAIR      54  28  36 NE9       30.03R
SIOUX FALLS    FAIR      57  34  41 N9        29.98R
OMAHA          CLOUDY    73  54  51 S6        29.82S
GRAND ISLAND   CLEAR     67  44  43 N22G33    29.88R
KANSAS CITY    CLOUDY    71  58  63 S21G26    29.90R
WICHITA        MOCLDY    69  54  58 S14       29.90R
HAYS           CLOUDY    70  48  46 SW16G29   29.84S
LIBERAL        CLOUDY    64  52  63 E16       29.94F
GOODLAND       CLOUDY    68  45  43 E18G24    29.97R
$$



USA.gov is the U.S. government's official web portal to all federal, state and local government web resources and services.